Weather History for KCLK - October, 2012

Change the Weather History Date:

Saturday, October 13, 2012

  Actual Average (KCSM) Record (KCSM)
Temperature  
Mean Temperature 74 °F -  
Max Temperature 86 °F 71 °F 89 °F (2007)
Min Temperature 60 °F 49 °F 42 °F (2006)
Cooling Degree Days 9    
Growing Degree Days 24 (Base 50)    
Moisture  
Dew Point 51 °F    
Average Humidity 55    
Maximum Humidity 83    
Minimum Humidity 10    
Precipitation  
Precipitation 0.02 in - - ()
Sea Level Pressure  
Sea Level Pressure 29.84 in    
Wind  
Wind Speed 17 mph (SSW)    
Max Wind Speed 25 mph    
Max Gust Speed 36 mph    
Visibility 10 miles    
Events Rain    
Averages and records for this station are not official NWS values.
T = Trace of Precipitation, MM = Missing Value Source: NWS Daily Summary

Daily Weather History Graph

Daily Weather History Graph

Search for Another Location

Airport or City:

Trip Planner

Search our weather history database for the weather conditions in past years. The results will help you decide how hot, cold, wet, or windy it might be!

Date:

Astronomy

Oct. 13, 2012 Rise Set
Actual Time 7:40 AM CDT 7:02 PM CDT
Civil Twilight 7:15 AM CDT 7:27 PM CDT
Nautical Twilight 6:45 AM CDT 7:57 PM CDT
Astronomical Twilight 6:16 AM CDT 8:26 PM CDT
Moon 5:35 AM CDT (10/13) 5:45 PM CDT (10/13)
Length of Visible Light 12h 12m
Length of Day
11h 21m
Waning Crescent, 5% of the Moon is Illuminated
Oct 13
Waning Crescent
Oct 15
New
Oct 21
First Quarter
Oct 29
Full
Nov 6
Last Quarter

Hourly Weather History & Observations

Time (CDT) Temp. Heat Index Dew Point Humidity Pressure Visibility Wind Dir Wind Speed Gust Speed Precip Events Conditions
12:35 AM 68.0 °F - 62.6 °F 83% 29.99 in 10.0 mi SSE 13.8 mph - N/A   Clear
12:55 AM 68.0 °F - 62.6 °F 83% 29.98 in 10.0 mi South 15.0 mph - N/A   Scattered Clouds
1:15 AM 68.0 °F - 62.6 °F 83% 29.98 in 10.0 mi SSE 13.8 mph - N/A   Scattered Clouds
1:55 AM 69.8 °F - 60.8 °F 73% 29.97 in 10.0 mi SSE 19.6 mph 23.0 mph N/A   Mostly Cloudy
2:15 AM 69.8 °F - 60.8 °F 73% 29.97 in 10.0 mi South 15.0 mph - N/A   Mostly Cloudy
2:35 AM 69.8 °F - 60.8 °F 73% 29.96 in 10.0 mi South 19.6 mph 26.5 mph N/A   Scattered Clouds
2:55 AM 69.8 °F - 62.6 °F 78% 29.96 in 10.0 mi South 18.4 mph - N/A   Scattered Clouds
3:35 AM 69.8 °F - 60.8 °F 73% 29.94 in 10.0 mi SSE 17.3 mph 23.0 mph N/A   Clear
3:55 AM 68.0 °F - 60.8 °F 78% 29.93 in 10.0 mi South 17.3 mph - N/A   Clear
4:15 AM 68.0 °F - 60.8 °F 78% 29.92 in 10.0 mi South 18.4 mph 23.0 mph N/A   Clear
4:35 AM 68.0 °F - 60.8 °F 78% 29.90 in 10.0 mi SSE 18.4 mph 25.3 mph N/A   Clear
5:35 AM 68.0 °F - 62.6 °F 83% 29.92 in 10.0 mi South 16.1 mph 21.9 mph N/A   Clear
5:55 AM 69.8 °F - 60.8 °F 73% 29.92 in 10.0 mi South 16.1 mph - N/A   Scattered Clouds
6:15 AM 69.8 °F - 62.6 °F 78% 29.92 in 10.0 mi South 17.3 mph 23.0 mph N/A   Mostly Cloudy
6:35 AM 69.8 °F - 62.6 °F 78% 29.92 in 10.0 mi South 18.4 mph 25.3 mph N/A   Mostly Cloudy
6:55 AM 69.8 °F - 62.6 °F 78% 29.91 in 10.0 mi South 15.0 mph 23.0 mph N/A   Scattered Clouds
7:15 AM 69.8 °F - 62.6 °F 78% 29.92 in 10.0 mi South 13.8 mph - N/A   Mostly Cloudy
7:55 AM 68.0 °F - 62.6 °F 83% 29.90 in 10.0 mi SSE 18.4 mph 24.2 mph N/A   Clear
8:15 AM 68.0 °F - 62.6 °F 83% 29.90 in 10.0 mi SSE 16.1 mph 25.3 mph N/A   Scattered Clouds
8:55 AM 69.8 °F - 62.6 °F 78% 29.90 in 10.0 mi South 19.6 mph - N/A   Overcast
9:15 AM 69.8 °F - 62.6 °F 78% 29.90 in 10.0 mi South 17.3 mph 23.0 mph N/A   Overcast
9:35 AM 69.8 °F - 62.6 °F 78% 29.90 in 10.0 mi South 15.0 mph - N/A   Overcast
9:55 AM 69.8 °F - 64.4 °F 83% 29.89 in 10.0 mi South 18.4 mph - N/A   Overcast
10:15 AM 71.6 °F - 64.4 °F 78% 29.88 in 10.0 mi South 16.1 mph - N/A   Overcast
10:55 AM 69.8 °F - 64.4 °F 83% 29.87 in 5.0 mi South 15.0 mph 23.0 mph 0.02 in Rain Light Rain
11:35 AM 73.4 °F - 66.2 °F 78% 29.85 in 10.0 mi South 16.1 mph 21.9 mph N/A   Mostly Cloudy
11:55 AM 75.2 °F - 64.4 °F 69% 29.84 in 10.0 mi SSW 19.6 mph 27.6 mph N/A   Mostly Cloudy
12:15 PM 75.2 °F - 64.4 °F 69% 29.83 in 10.0 mi SSW 19.6 mph 26.5 mph N/A   Mostly Cloudy
12:35 PM 77.0 °F - 66.2 °F 69% 29.82 in 10.0 mi SSW 18.4 mph 27.6 mph N/A   Mostly Cloudy
12:55 PM 78.8 °F - 66.2 °F 65% 29.81 in 10.0 mi South 21.9 mph 27.6 mph N/A   Mostly Cloudy
1:15 PM 80.6 °F 81.8 °F 62.6 °F 54% 29.79 in 10.0 mi South 23.0 mph 33.4 mph N/A   Mostly Cloudy
1:55 PM 82.4 °F 83.4 °F 62.6 °F 51% 29.74 in 10.0 mi SSW 24.2 mph 31.1 mph N/A   Scattered Clouds
2:15 PM 82.4 °F 82.9 °F 60.8 °F 48% 29.73 in 10.0 mi SSW 17.3 mph 29.9 mph N/A   Clear
2:35 PM 77.0 °F - 64.4 °F 65% 29.72 in 10.0 mi SSE 21.9 mph 29.9 mph N/A   Mostly Cloudy
2:55 PM 75.2 °F - 60.8 °F 61% 29.71 in 10.0 mi SSE 17.3 mph 24.2 mph N/A   Scattered Clouds
3:15 PM 77.0 °F - 60.8 °F 57% 29.70 in 10.0 mi SSE 16.1 mph 23.0 mph N/A   Clear
3:35 PM 84.2 °F - 44.6 °F 25% 29.68 in 10.0 mi WSW 23.0 mph 29.9 mph N/A   Clear
3:55 PM 86.0 °F - 33.8 °F 15% 29.69 in 10.0 mi WSW 25.3 mph 35.7 mph N/A   Clear
4:15 PM 86.0 °F - 28.4 °F 12% 29.70 in 10.0 mi WSW 24.2 mph 33.4 mph N/A   Clear
4:55 PM 86.0 °F - 23.0 °F 10% 29.71 in 10.0 mi SW 25.3 mph 33.4 mph N/A   Clear
5:15 PM 84.2 °F - 21.2 °F 10% 29.70 in 10.0 mi WSW 24.2 mph 31.1 mph N/A   Clear
5:35 PM 82.4 °F - 21.2 °F 10% 29.69 in 10.0 mi WSW 25.3 mph 32.2 mph N/A   Clear
5:55 PM 82.4 °F - 23.0 °F 11% 29.69 in 10.0 mi West 25.3 mph 34.5 mph N/A   Clear
6:15 PM 80.6 °F - 19.4 °F 10% 29.69 in 10.0 mi West 18.4 mph 33.4 mph N/A   Clear
6:35 PM 80.6 °F - 17.6 °F 10% 29.70 in 10.0 mi West 19.6 mph 27.6 mph N/A   Clear
8:15 PM 71.6 °F - 23.0 °F 16% 29.77 in 10.0 mi WSW 8.1 mph - N/A   Clear
8:35 PM 68.0 °F - 26.6 °F 21% 29.77 in 10.0 mi WSW 8.1 mph - N/A   Clear
9:15 PM 68.0 °F - 26.6 °F 21% 29.78 in 10.0 mi WSW 8.1 mph - N/A   Clear
9:35 PM 64.4 °F - 28.4 °F 26% 29.79 in 10.0 mi WSW 6.9 mph - N/A   Clear
9:55 PM 64.4 °F - 30.2 °F 28% 29.80 in 10.0 mi WNW 12.7 mph - N/A   Clear
10:15 PM 62.6 °F - 30.2 °F 30% 29.81 in 10.0 mi WNW 18.4 mph - N/A   Clear
10:35 PM 68.0 °F - 32.0 °F 26% 29.82 in 10.0 mi WNW 21.9 mph 29.9 mph N/A   Clear
10:55 PM 64.4 °F - 32.0 °F 30% 29.83 in 10.0 mi WNW 12.7 mph - N/A   Clear
11:15 PM 62.6 °F - 35.6 °F 37% 29.83 in 10.0 mi WNW 10.4 mph - N/A   Clear
11:35 PM 60.8 °F - 37.4 °F 42% 29.83 in 10.0 mi West 6.9 mph - N/A   Clear